This demonstration page uses our WeatherBlox Daily Observations layout. Learn more.

40.92945, -100.16068

Hourly Observations for March 23, 2018

Temp ( °F °C ) Dew Point ( °F °C ) Humidity (%) Winds ( mph kmh ) Pressure ( in mb ) Visibility ( mi km ) Precip ( " mm )
12:15 am 00:15 Clear 52 11.3 40 4.6 64 64 E 15 24 30 1016 10 16.0934 0 0
12:35 am 00:35 Clear 52 11.1 40 4.5 64 64 E 14 22 30 1016 10 16.0934 0 0
12:55 am 00:55 Clear 52 10.9 40 4.5 65 65 ESE 14 22 30 1016 10 16.0934 0 0
1:15 am 01:15 Clear 51 10.7 40 4.5 66 66 E 13 20 30 1016 10 16.0934 0 0
1:35 am 01:35 Clear 51 10.5 40 4.5 67 67 E 13 20 30 1016 10 16.0934 0 0
1:55 am 01:55 Clear 51 10.3 40 4.5 68 68 E 13 20 30 1016 10 16.0934 0 0
2:15 am 02:15 Partly Cloudy 50 10 40 4.5 69 69 E 13 20 30 1016 10 16.0934 0 0
2:35 am 02:35 Partly Cloudy 49 9.6 40 4.4 70 70 E 15 24 30.03 1017 10 16.0934 0 0
2:55 am 02:55 Partly Cloudy 49 9.6 40 4.3 70 70 E 14 22 30 1016 10 16.0934 0 0
3:15 am 03:15 Mostly Cloudy 49 9.3 40 4.2 71 71 E 15 24 30 1016 10 16.0934 0 0
3:35 am 03:35 Cloudy 48 9 40 4.2 72 72 E 15 24 30 1016 10 16.0934 0 0
3:55 am 03:55 Mostly Cloudy 48 9.1 39 4 71 71 E 16 26 29.97 1015 10 16.0934 0 0
4:15 am 04:15 Partly Cloudy 48 8.7 39 3.8 72 72 ESE 15 24 29.97 1015 10 16.0934 0 0
4:35 am 04:35 Partly Cloudy 47 8.5 39 4 74 74 ESE 10 17 29.97 1015 10 16.0934 0 0
4:55 am 04:55 Partly Cloudy 47 8.5 39 3.9 73 73 E 14 22 29.94 1014 10 16.0934 0 0
5:15 am 05:15 Clear 47 8.1 39 3.8 75 75 E 13 20 29.94 1014 10 16.0934 0 0
5:35 am 05:35 Clear 46 7.9 38 3.6 75 75 E 12 19 29.94 1014 10 16.0934 0 0
5:55 am 05:55 Clear 46 7.7 38 3.6 76 76 E 14 22 29.94 1014 10 16.0934 0 0
6:15 am 06:15 Clear 46 7.5 38 3.5 76 76 E 13 20 29.94 1014 10 16.0934 0 0
6:35 am 06:35 Clear 45 7.2 38 3.1 75 75 E 12 19 29.94 1014 10 16.0934 0 0
6:55 am 06:55 Clear 45 7 37 3 76 76 E 10 17 29.94 1014 10 16.0934 0 0
7:15 am 07:15 Clear 44 6.6 37 2.8 77 77 E 10 17 29.94 1014 10 16.0934 0 0
7:35 am 07:35 Clear 43 6.3 37 2.5 77 77 E 16 26 29.91 1013 10 16.0934 0 0
7:55 am 07:55 Sunny 43 6 36 2.3 77 77 E 16 26 29.91 1013 10 16.0934 0 0
8:15 am 08:15 Sunny 42 5.7 36 2.2 78 78 E 16 26 29.91 1013 10 16.0934 0 0
8:35 am 08:35 Sunny 42 5.5 36 2.3 80 80 E 14 22 29.94 1014 10 16.0934 0 0
8:55 am 08:55 Sunny 42 5.5 36 2.3 80 80 E 17 28 29.94 1014 10 16.0934 0 0
9:15 am 09:15 Sunny 43 5.9 36 2.4 78 78 E 15 24 29.91 1013 10 16.0934 0 0
9:35 am 09:35 Sunny 44 6.5 37 2.6 76 76 E 17 28 29.88 1012 10 16.0934 0 0
9:55 am 09:55 Partly Cloudy 44 6.6 37 2.7 76 76 E 16 26 29.88 1012 10 16.0934 0 0
10:15 am 10:15 Partly Cloudy 46 7.5 38 3.2 74 74 ESE 20 31 29.88 1012 10 16.0934 0 0
10:35 am 10:35 Partly Cloudy 46 8 38 3.4 73 73 ESE 17 28 29.88 1012 10 16.0934 0 0
10:55 am 10:55 Partly Cloudy 47 8.6 39 3.9 73 73 ESE 17 28 29.83 1010 10 16.0934 0 0
11:15 am 11:15 Partly Cloudy 49 9.3 40 4.3 71 71 ESE 17 28 29.83 1010 10 16.0934 0 0
11:35 am 11:35 Mostly Cloudy 49 9.7 40 4.4 70 70 ESE 18 30 29.83 1010 10 16.0934 0 0
11:55 am 11:55 Cloudy 50 10.1 40 4.6 69 69 ESE 17 28 29.8 1009 10 16.0934 0 0
12:15 pm 12:15 Cloudy 53 11.4 42 5.4 67 67 ESE 17 28 29.77 1008 10 16.0934 0 0
12:35 pm 12:35 Cloudy 53 11.7 42 5.4 66 66 E 18 30 29.74 1007 10 16.0934 0 0
12:55 pm 12:55 Mostly Cloudy 56 13.4 43 6.3 62 62 ESE 20 31 29.74 1007 10 16.0934 0 0
1:15 pm 13:15 Mostly Cloudy 59 14.9 44 6.6 58 58 ESE 17 28 29.68 1005 10 16.0934 0 0
1:35 pm 13:35 Cloudy 60 15.6 45 7.4 58 58 ESE 17 28 29.68 1005 10 16.0934 0 0
1:55 pm 13:55 Mostly Cloudy 61 16 46 7.8 58 58 SE 17 28 29.68 1005 10 16.0934 0 0
2:15 pm 14:15 Partly Cloudy 63 17.3 47 8.5 56 56 E 17 28 29.62 1003 10 16.0934 0 0
2:35 pm 14:35 Partly Cloudy 63 17.1 47 8.3 56 56 ESE 14 22 29.62 1003 10 16.0934 0 0
2:55 pm 14:55 Partly Cloudy 64 17.6 48 8.8 57 57 ESE 17 28 29.62 1003 10 16.0934 0 0
3:15 pm 15:15 Mostly Cloudy 66 18.7 48 9.1 54 54 SE 16 26 29.62 1003 10 16.0934 0 0
3:35 pm 15:35 Mostly Cloudy 67 19.2 49 9.2 53 53 ESE 13 20 29.62 1003 10 16.0934 0 0
3:55 pm 15:55 Partly Cloudy 67 19.2 49 9.3 53 53 SE 17 28 29.59 1002 10 16.0934 0 0
4:15 pm 16:15 Partly Cloudy 67 19.6 49 9.6 53 53 ESE 20 31 29.59 1002 10 16.0934 0 0
4:35 pm 16:35 Partly Cloudy 68 19.9 49 9.6 52 52 ESE 16 26 29.59 1002 10 16.0934 0 0
4:55 pm 16:55 Mostly Cloudy 67 19.5 50 9.8 54 54 E 13 20 29.59 1002 10 16.0934 0 0
5:15 pm 17:15 Cloudy 67 19.5 50 10 54 54 ENE 13 20 29.59 1002 10 16.0934 0 0
5:35 pm 17:35 Cloudy 63 17.4 47 8.4 56 56 NE 20 31 29.59 1002 10 16.0934 0 0
5:55 pm 17:55 Cloudy 61 16 46 7.8 58 58 N 16 26 29.65 1004 10 16.0934 0 0
6:15 pm 18:15 Cloudy with Light Rain 58 14.3 46 8 66 66 NNE 18 30 29.65 1004 10 16.0934 0 0
6:35 pm 18:35 Cloudy with Light Rain 54 12.2 46 7.8 75 75 N 21 33 29.68 1005 7 11.26538 0 0
6:55 pm 18:55 Partly Cloudy with Nearby Thunderstorms 53 11.8 45 7 73 73 NNE 22 35 29.68 1005 10 16.0934 0 0
7:15 pm 19:15 Mostly Cloudy 51 10.8 43 6.1 73 73 NNE 17 28 29.71 1006 10 16.0934 0 0
7:35 pm 19:35 Cloudy 51 10.3 43 6 75 75 N 14 22 29.77 1008 10 16.0934 0 0
7:55 pm 19:55 Cloudy 50 10.2 42 5.7 74 74 NE 13 20 29.77 1008 10 16.0934 0 0
8:15 pm 20:15 Cloudy with Heavy Rain 49 9.5 43 6.2 80 80 NNW 10 17 29.8 1009 7 11.26538 0.03 0.762
8:35 pm 20:35 Cloudy with Rain 48 9.1 44 6.4 83 83 NNE 14 22 29.77 1008 7 11.26538 0.06 1.524
8:55 pm 20:55 Partly Cloudy 47 8.5 43 6 84 84 NE 14 22 29.77 1008 10 16.0934 0.08 2.032
9:15 pm 21:15 Clear 46 8 42 5.4 84 84 NE 14 22 29.74 1007 10 16.0934 0 0
9:35 pm 21:35 Clear 46 7.6 41 5.1 84 84 ENE 16 26 29.74 1007 10 16.0934 0 0
9:55 pm 21:55 Clear 45 7.3 41 5 85 85 ENE 13 20 29.74 1007 10 16.0934 0 0
10:15 pm 22:15 Clear 45 7 41 5 87 87 ENE 10 17 29.8 1009 7 11.26538 0 0
10:35 pm 22:35 Clear 44 6.6 40 4.7 88 88 NE 7 11 29.8 1009 7 11.26538 0 0
10:55 pm 22:55 Partly Cloudy 43 6.1 40 4.2 88 88 N 6 9 29.83 1010 7 11.26538 0 0
11:15 pm 23:15 Partly Cloudy with Mist and Fog 42 5.5 39 4.1 91 91 NNW 9 15 29.83 1010 5 8.0467 0 0
11:35 pm 23:35 Clear with Mist and Fog 41 5.1 39 3.7 91 91 NNW 6 9 29.85 1011 5 8.0467 0 0
11:55 pm 23:55 Clear with Mist and Fog 41 5.2 39 4 92 92 NNW 8 13 29.85 1011 5 8.0467 0 0

Powered by AerisWeather